owner,sensor,date,latitude,longitude,vertical_datum,wind_speed,wind_to_direction,wind_speed_of_gust,qcFlag 
DISL,ioos:station:DISL:KATA:1,2015-12-01T00:00:00Z,30.2583,-88.2131,0.0,1.24,116.5,-9999.0,'1111122,1111122,1111122' 
DISL,ioos:station:DISL:KATA:1,2015-12-01T00:30:00Z,30.2583,-88.2131,0.0,1.76,121.7,-9999.0,'1111122,1111122,1111122' 
DISL,ioos:station:DISL:KATA:1,2015-12-01T01:00:00Z,30.2583,-88.2131,0.0,1.75,116.0,-9999.0,'1111122,1111122,1111122' 
DISL,ioos:station:DISL:KATA:1,2015-12-01T01:30:00Z,30.2583,-88.2131,0.0,2.08,117.6,-9999.0,'1111122,1111122,1111122' 
DISL,ioos:station:DISL:KATA:1,2015-12-01T02:00:00Z,30.2583,-88.2131,0.0,2.32,111.4,-9999.0,'1111122,1111122,1111122' 
DISL,ioos:station:DISL:KATA:1,2015-12-01T02:30:00Z,30.2583,-88.2131,0.0,2.94,117.7,-9999.0,'1111122,1111122,1111122' 
DISL,ioos:station:DISL:KATA:1,2015-12-01T03:00:00Z,30.2583,-88.2131,0.0,2.36,123.9,-9999.0,'1111122,1111122,1111122' 
DISL,ioos:station:DISL:KATA:1,2015-12-01T03:30:00Z,30.2583,-88.2131,0.0,1.61,120.6,-9999.0,'1111122,1111122,1111122' 
DISL,ioos:station:DISL:KATA:1,2015-12-01T04:00:00Z,30.2583,-88.2131,0.0,2.37,143.4,-9999.0,'1111122,1111122,1111122' 
DISL,ioos:station:DISL:KATA:1,2015-12-01T04:30:00Z,30.2583,-88.2131,0.0,3.67,152.3,-9999.0,'1111122,1111122,1111122' 
DISL,ioos:station:DISL:KATA:1,2015-12-01T05:00:00Z,30.2583,-88.2131,0.0,4.59,159.3,-9999.0,'1111122,1111122,1111122' 
DISL,ioos:station:DISL:KATA:1,2015-12-01T05:30:00Z,30.2583,-88.2131,0.0,5.25,164.9,-9999.0,'1111122,1111122,1111122' 
DISL,ioos:station:DISL:KATA:1,2015-12-01T06:00:00Z,30.2583,-88.2131,0.0,4.27,177.0,-9999.0,'1111122,1111122,1111122' 
DISL,ioos:station:DISL:KATA:1,2015-12-01T06:30:00Z,30.2583,-88.2131,0.0,3.53,180.3,-9999.0,'1111122,1111122,1111122' 
DISL,ioos:station:DISL:KATA:1,2015-12-01T07:00:00Z,30.2583,-88.2131,0.0,3.11,176.7,-9999.0,'1111122,1111122,1111122' 
DISL,ioos:station:DISL:KATA:1,2015-12-01T07:30:00Z,30.2583,-88.2131,0.0,2.49,179.3,-9999.0,'1111122,1111122,1111122' 
DISL,ioos:station:DISL:KATA:1,2015-12-01T08:00:00Z,30.2583,-88.2131,0.0,3.09,177.3,-9999.0,'1111122,1111122,1111122' 
DISL,ioos:station:DISL:KATA:1,2015-12-01T08:30:00Z,30.2583,-88.2131,0.0,3.24,182.8,-9999.0,'1111122,1111122,1111122' 
DISL,ioos:station:DISL:KATA:1,2015-12-01T09:00:00Z,30.2583,-88.2131,0.0,2.43,182.7,-9999.0,'1111122,1111122,1111122' 
DISL,ioos:station:DISL:KATA:1,2015-12-01T09:30:00Z,30.2583,-88.2131,0.0,1.74,205.6,-9999.0,'1111122,1111122,1111122' 
DISL,ioos:station:DISL:KATA:1,2015-12-01T10:00:00Z,30.2583,-88.2131,0.0,1.8,181.4,-9999.0,'1111122,1111122,1111122' 
DISL,ioos:station:DISL:KATA:1,2015-12-01T10:30:00Z,30.2583,-88.2131,0.0,2.64,176.1,-9999.0,'1111122,1111122,1111122' 
DISL,ioos:station:DISL:KATA:1,2015-12-01T11:00:00Z,30.2583,-88.2131,0.0,3.26,182.6,-9999.0,'1111122,1111122,1111122' 
DISL,ioos:station:DISL:KATA:1,2015-12-01T11:30:00Z,30.2583,-88.2131,0.0,4.52,181.2,-9999.0,'1111122,1111122,1111122' 
DISL,ioos:station:DISL:KATA:1,2015-12-01T12:00:00Z,30.2583,-88.2131,0.0,3.47,210.9,-9999.0,'1111122,1111122,1111122' 
DISL,ioos:station:DISL:KATA:1,2015-12-01T12:30:00Z,30.2583,-88.2131,0.0,2.93,242.9,-9999.0,'1111122,1111122,1111122' 
DISL,ioos:station:DISL:KATA:1,2015-12-01T13:00:00Z,30.2583,-88.2131,0.0,2.68,252.1,-9999.0,'1111122,1111122,1111122' 
DISL,ioos:station:DISL:KATA:1,2015-12-01T13:30:00Z,30.2583,-88.2131,0.0,1.87,234.2,-9999.0,'1111122,1111122,1111122' 
DISL,ioos:station:DISL:KATA:1,2015-12-01T14:00:00Z,30.2583,-88.2131,0.0,2.07,186.2,-9999.0,'1111122,1111122,1111122' 
DISL,ioos:station:DISL:KATA:1,2015-12-01T14:30:00Z,30.2583,-88.2131,0.0,3.89,149.4,-9999.0,'1111122,1111122,1111122' 
DISL,ioos:station:DISL:KATA:1,2015-12-01T15:00:00Z,30.2583,-88.2131,0.0,1.74,148.1,-9999.0,'1111122,1111122,1111122' 
DISL,ioos:station:DISL:KATA:1,2015-12-01T15:30:00Z,30.2583,-88.2131,0.0,2.29,139.2,-9999.0,'1111122,1111122,1111122' 
DISL,ioos:station:DISL:KATA:1,2015-12-01T16:00:00Z,30.2583,-88.2131,0.0,2.62,140.9,-9999.0,'1111122,1111122,1111122' 
DISL,ioos:station:DISL:KATA:1,2015-12-01T16:30:00Z,30.2583,-88.2131,0.0,0.72,146.7,-9999.0,'1111122,1111122,1111122' 
DISL,ioos:station:DISL:KATA:1,2015-12-01T17:00:00Z,30.2583,-88.2131,0.0,1.75,151.4,-9999.0,'1111122,1111122,1111122' 
DISL,ioos:station:DISL:KATA:1,2015-12-01T17:30:00Z,30.2583,-88.2131,0.0,2.08,150.9,-9999.0,'1111122,1111122,1111122' 
DISL,ioos:station:DISL:KATA:1,2015-12-01T18:00:00Z,30.2583,-88.2131,0.0,2.63,151.6,-9999.0,'1111122,1111122,1111122' 
DISL,ioos:station:DISL:KATA:1,2015-12-01T18:30:00Z,30.2583,-88.2131,0.0,2.27,143.2,-9999.0,'1111122,1111122,1111122' 
DISL,ioos:station:DISL:KATA:1,2015-12-01T19:00:00Z,30.2583,-88.2131,0.0,1.96,172.9,-9999.0,'1111122,1111122,1111122' 
DISL,ioos:station:DISL:KATA:1,2015-12-01T19:30:00Z,30.2583,-88.2131,0.0,1.97,167.8,-9999.0,'1111122,1111122,1111122' 
DISL,ioos:station:DISL:KATA:1,2015-12-01T20:00:00Z,30.2583,-88.2131,0.0,1.05,215.2,-9999.0,'1111122,1111122,1111122' 
DISL,ioos:station:DISL:KATA:1,2015-12-01T20:30:00Z,30.2583,-88.2131,0.0,0.22,255.5,-9999.0,'1111122,1111122,1111122' 
DISL,ioos:station:DISL:KATA:1,2015-12-01T21:00:00Z,30.2583,-88.2131,0.0,0.98,221.1,-9999.0,'1111122,1111122,1111122' 
DISL,ioos:station:DISL:KATA:1,2015-12-01T21:30:00Z,30.2583,-88.2131,0.0,1.78,180.1,-9999.0,'1111122,1111122,1111122' 
DISL,ioos:station:DISL:KATA:1,2015-12-01T22:00:00Z,30.2583,-88.2131,0.0,2.41,163.6,-9999.0,'1111122,1111122,1111122' 
DISL,ioos:station:DISL:KATA:1,2015-12-01T22:30:00Z,30.2583,-88.2131,0.0,3.1,170.8,-9999.0,'1111122,1111122,1111122' 
DISL,ioos:station:DISL:KATA:1,2015-12-01T23:00:00Z,30.2583,-88.2131,0.0,3.22,176.7,-9999.0,'1111122,1111122,1111122' 
DISL,ioos:station:DISL:KATA:1,2015-12-01T23:30:00Z,30.2583,-88.2131,0.0,2.76,186.5,-9999.0,'1111122,1111122,1111122' 
DISL,ioos:station:DISL:KATA:1,2015-12-02T00:00:00Z,30.2583,-88.2131,0.0,2.94,190.5,-9999.0,'1111122,1111122,1111122' 
DISL,ioos:station:DISL:KATA:1,2015-12-02T00:30:00Z,30.2583,-88.2131,0.0,3.62,192.0,-9999.0,'1111122,1111122,1111122' 
DISL,ioos:station:DISL:KATA:1,2015-12-02T01:00:00Z,30.2583,-88.2131,0.0,3.39,192.0,-9999.0,'1111122,1111122,1111122' 
DISL,ioos:station:DISL:KATA:1,2015-12-02T01:30:00Z,30.2583,-88.2131,0.0,3.98,192.8,-9999.0,'1111122,1111122,1111122' 
DISL,ioos:station:DISL:KATA:1,2015-12-02T02:00:00Z,30.2583,-88.2131,0.0,3.9,195.7,-9999.0,'1111122,1111122,1111122' 
DISL,ioos:station:DISL:KATA:1,2015-12-02T02:30:00Z,30.2583,-88.2131,0.0,3.7,177.1,-9999.0,'1111122,1111122,1111122' 
DISL,ioos:station:DISL:KATA:1,2015-12-02T03:00:00Z,30.2583,-88.2131,0.0,4.0,194.7,-9999.0,'1111122,1111122,1111122' 
DISL,ioos:station:DISL:KATA:1,2015-12-02T03:30:00Z,30.2583,-88.2131,0.0,3.41,179.4,-9999.0,'1111122,1111122,1111122' 
DISL,ioos:station:DISL:KATA:1,2015-12-02T04:00:00Z,30.2583,-88.2131,0.0,3.66,180.6,-9999.0,'1111122,1111122,1111122' 
DISL,ioos:station:DISL:KATA:1,2015-12-02T04:30:00Z,30.2583,-88.2131,0.0,3.19,186.4,-9999.0,'1111122,1111122,1111122' 
DISL,ioos:station:DISL:KATA:1,2015-12-02T05:00:00Z,30.2583,-88.2131,0.0,3.22,195.7,-9999.0,'1111122,1111122,1111122' 
DISL,ioos:station:DISL:KATA:1,2015-12-02T05:30:00Z,30.2583,-88.2131,0.0,3.23,180.5,-9999.0,'1111122,1111122,1111122' 
DISL,ioos:station:DISL:KATA:1,2015-12-02T06:00:00Z,30.2583,-88.2131,0.0,2.77,214.6,-9999.0,'1111122,1111122,1111122' 
DISL,ioos:station:DISL:KATA:1,2015-12-02T06:30:00Z,30.2583,-88.2131,0.0,2.47,281.0,-9999.0,'1111122,1111122,1111122' 
DISL,ioos:station:DISL:KATA:1,2015-12-02T07:00:00Z,30.2583,-88.2131,0.0,1.56,305.4,-9999.0,'1111122,1111122,1111122' 
DISL,ioos:station:DISL:KATA:1,2015-12-02T07:30:00Z,30.2583,-88.2131,0.0,2.16,301.5,-9999.0,'1111122,1111122,1111122' 
DISL,ioos:station:DISL:KATA:1,2015-12-02T08:00:00Z,30.2583,-88.2131,0.0,3.42,295.6,-9999.0,'1111122,1111122,1111122' 
DISL,ioos:station:DISL:KATA:1,2015-12-02T08:30:00Z,30.2583,-88.2131,0.0,1.91,290.2,-9999.0,'1111122,1111122,1111122' 
DISL,ioos:station:DISL:KATA:1,2015-12-02T09:00:00Z,30.2583,-88.2131,0.0,2.62,292.6,-9999.0,'1111122,1111122,1111122' 
DISL,ioos:station:DISL:KATA:1,2015-12-02T09:30:00Z,30.2583,-88.2131,0.0,2.93,294.6,-9999.0,'1111122,1111122,1111122' 
DISL,ioos:station:DISL:KATA:1,2015-12-02T10:00:00Z,30.2583,-88.2131,0.0,3.06,294.6,-9999.0,'1111122,1111122,1111122' 
DISL,ioos:station:DISL:KATA:1,2015-12-02T10:30:00Z,30.2583,-88.2131,0.0,5.83,307.2,-9999.0,'1111122,1111122,1111122' 
DISL,ioos:station:DISL:KATA:1,2015-12-02T11:00:00Z,30.2583,-88.2131,0.0,5.91,324.2,-9999.0,'1111122,1111122,1111122' 
DISL,ioos:station:DISL:KATA:1,2015-12-02T11:30:00Z,30.2583,-88.2131,0.0,8.51,329.5,-9999.0,'1111122,1111122,1111122' 
DISL,ioos:station:DISL:KATA:1,2015-12-02T12:00:00Z,30.2583,-88.2131,0.0,9.4,347.2,-9999.0,'1111122,1111122,1111122' 
DISL,ioos:station:DISL:KATA:1,2015-12-02T12:30:00Z,30.2583,-88.2131,0.0,8.5,360.0,-9999.0,'1111122,1111122,1111122' 
DISL,ioos:station:DISL:KATA:1,2015-12-02T13:00:00Z,30.2583,-88.2131,0.0,10.65,355.3,-9999.0,'1111122,1111122,1111122' 
DISL,ioos:station:DISL:KATA:1,2015-12-02T13:30:00Z,30.2583,-88.2131,0.0,7.73,13.79,-9999.0,'1111122,1111122,1111122' 
DISL,ioos:station:DISL:KATA:1,2015-12-02T14:00:00Z,30.2583,-88.2131,0.0,8.01,0.688,-9999.0,'1111122,1111122,1111122' 
DISL,ioos:station:DISL:KATA:1,2015-12-02T14:30:00Z,30.2583,-88.2131,0.0,8.47,8.21,-9999.0,'1111122,1111122,1111122' 
DISL,ioos:station:DISL:KATA:1,2015-12-02T15:00:00Z,30.2583,-88.2131,0.0,8.26,29.33,-9999.0,'1111122,1111122,1111122' 
DISL,ioos:station:DISL:KATA:1,2015-12-02T15:30:00Z,30.2583,-88.2131,0.0,6.27,25.56,-9999.0,'1111122,1111122,1111122' 
DISL,ioos:station:DISL:KATA:1,2015-12-02T16:00:00Z,30.2583,-88.2131,0.0,5.84,30.09,-9999.0,'1111122,1111122,1111122' 
DISL,ioos:station:DISL:KATA:1,2015-12-02T16:30:00Z,30.2583,-88.2131,0.0,4.65,27.42,-9999.0,'1111122,1111122,1111122' 
DISL,ioos:station:DISL:KATA:1,2015-12-02T17:00:00Z,30.2583,-88.2131,0.0,4.4,19.0,-9999.0,'1111122,1111122,1111122' 
DISL,ioos:station:DISL:KATA:1,2015-12-02T17:30:00Z,30.2583,-88.2131,0.0,7.83,358.9,-9999.0,'1111122,1111122,1111122' 
DISL,ioos:station:DISL:KATA:1,2015-12-02T18:00:00Z,30.2583,-88.2131,0.0,4.38,10.55,-9999.0,'1111122,1111122,1111122' 
DISL,ioos:station:DISL:KATA:1,2015-12-02T18:30:00Z,30.2583,-88.2131,0.0,6.33,345.7,-9999.0,'1111122,1111122,1111122' 
DISL,ioos:station:DISL:KATA:1,2015-12-02T19:00:00Z,30.2583,-88.2131,0.0,6.18,353.8,-9999.0,'1111122,1111122,1111122' 
DISL,ioos:station:DISL:KATA:1,2015-12-02T19:30:00Z,30.2583,-88.2131,0.0,4.83,17.1,-9999.0,'1111122,1111122,1111122' 
DISL,ioos:station:DISL:KATA:1,2015-12-02T20:00:00Z,30.2583,-88.2131,0.0,4.54,344.7,-9999.0,'1111122,1111122,1111122' 
DISL,ioos:station:DISL:KATA:1,2015-12-02T20:30:00Z,30.2583,-88.2131,0.0,5.23,344.6,-9999.0,'1111122,1111122,1111122' 
DISL,ioos:station:DISL:KATA:1,2015-12-02T21:00:00Z,30.2583,-88.2131,0.0,4.36,5.754,-9999.0,'1111122,1111122,1111122' 
DISL,ioos:station:DISL:KATA:1,2015-12-02T21:30:00Z,30.2583,-88.2131,0.0,6.7,345.7,-9999.0,'1111122,1111122,1111122' 
DISL,ioos:station:DISL:KATA:1,2015-12-02T22:00:00Z,30.2583,-88.2131,0.0,5.19,349.5,-9999.0,'1111122,1111122,1111122' 
DISL,ioos:station:DISL:KATA:1,2015-12-02T22:30:00Z,30.2583,-88.2131,0.0,7.31,344.2,-9999.0,'1111122,1111122,1111122' 
DISL,ioos:station:DISL:KATA:1,2015-12-02T23:00:00Z,30.2583,-88.2131,0.0,7.32,351.1,-9999.0,'1111122,1111122,1111122' 
DISL,ioos:station:DISL:KATA:1,2015-12-02T23:30:00Z,30.2583,-88.2131,0.0,6.14,346.4,-9999.0,'1111122,1111122,1111122' 
DISL,ioos:station:DISL:KATA:1,2015-12-03T00:00:00Z,30.2583,-88.2131,0.0,7.26,348.0,-9999.0,'1111122,1111122,1111122' 
DISL,ioos:station:DISL:KATA:1,2015-12-03T00:30:00Z,30.2583,-88.2131,0.0,5.45,343.9,-9999.0,'1111122,1111122,1111122' 
DISL,ioos:station:DISL:KATA:1,2015-12-03T01:00:00Z,30.2583,-88.2131,0.0,6.49,344.1,-9999.0,'1111122,1111122,1111122' 
DISL,ioos:station:DISL:KATA:1,2015-12-03T01:30:00Z,30.2583,-88.2131,0.0,7.92,348.2,-9999.0,'1111122,1111122,1111122' 
DISL,ioos:station:DISL:KATA:1,2015-12-03T02:00:00Z,30.2583,-88.2131,0.0,6.96,346.3,-9999.0,'1111122,1111122,1111122' 
DISL,ioos:station:DISL:KATA:1,2015-12-03T02:30:00Z,30.2583,-88.2131,0.0,7.59,347.4,-9999.0,'1111122,1111122,1111122' 
DISL,ioos:station:DISL:KATA:1,2015-12-03T03:00:00Z,30.2583,-88.2131,0.0,7.85,354.3,-9999.0,'1111122,1111122,1111122' 
DISL,ioos:station:DISL:KATA:1,2015-12-03T03:30:00Z,30.2583,-88.2131,0.0,6.96,344.8,-9999.0,'1111122,1111122,1111122' 
DISL,ioos:station:DISL:KATA:1,2015-12-03T04:00:00Z,30.2583,-88.2131,0.0,6.49,351.0,-9999.0,'1111122,1111122,1111122' 
DISL,ioos:station:DISL:KATA:1,2015-12-03T04:30:00Z,30.2583,-88.2131,0.0,7.0,357.3,-9999.0,'1111122,1111122,1111122' 
DISL,ioos:station:DISL:KATA:1,2015-12-03T05:00:00Z,30.2583,-88.2131,0.0,7.17,355.3,-9999.0,'1111122,1111122,1111122' 
DISL,ioos:station:DISL:KATA:1,2015-12-03T05:30:00Z,30.2583,-88.2131,0.0,7.49,0.662,-9999.0,'1111122,1111122,1111122' 
DISL,ioos:station:DISL:KATA:1,2015-12-03T06:00:00Z,30.2583,-88.2131,0.0,7.08,2.982,-9999.0,'1111122,1111122,1111122' 
DISL,ioos:station:DISL:KATA:1,2015-12-03T06:30:00Z,30.2583,-88.2131,0.0,7.13,1.828,-9999.0,'1111122,1111122,1111122' 
DISL,ioos:station:DISL:KATA:1,2015-12-03T07:00:00Z,30.2583,-88.2131,0.0,7.3,1.757,-9999.0,'1111122,1111122,1111122' 
DISL,ioos:station:DISL:KATA:1,2015-12-03T07:30:00Z,30.2583,-88.2131,0.0,7.76,6.263,-9999.0,'1111122,1111122,1111122' 
DISL,ioos:station:DISL:KATA:1,2015-12-03T08:00:00Z,30.2583,-88.2131,0.0,8.06,11.19,-9999.0,'1111122,1111122,1111122' 
DISL,ioos:station:DISL:KATA:1,2015-12-03T08:30:00Z,30.2583,-88.2131,0.0,8.84,10.33,-9999.0,'1111122,1111122,1111122' 
DISL,ioos:station:DISL:KATA:1,2015-12-03T09:00:00Z,30.2583,-88.2131,0.0,8.54,9.36,-9999.0,'1111122,1111122,1111122' 
DISL,ioos:station:DISL:KATA:1,2015-12-03T09:30:00Z,30.2583,-88.2131,0.0,8.76,14.34,-9999.0,'1111122,1111122,1111122' 
DISL,ioos:station:DISL:KATA:1,2015-12-03T10:00:00Z,30.2583,-88.2131,0.0,7.63,22.08,-9999.0,'1111122,1111122,1111122' 
DISL,ioos:station:DISL:KATA:1,2015-12-03T10:30:00Z,30.2583,-88.2131,0.0,7.91,22.52,-9999.0,'1111122,1111122,1111122' 
DISL,ioos:station:DISL:KATA:1,2015-12-03T11:00:00Z,30.2583,-88.2131,0.0,8.05,19.07,-9999.0,'1111122,1111122,1111122' 
DISL,ioos:station:DISL:KATA:1,2015-12-03T11:30:00Z,30.2583,-88.2131,0.0,9.11,21.97,-9999.0,'1111122,1111122,1111122' 
DISL,ioos:station:DISL:KATA:1,2015-12-03T12:00:00Z,30.2583,-88.2131,0.0,8.12,24.1,-9999.0,'1111122,1111122,1111122' 
DISL,ioos:station:DISL:KATA:1,2015-12-03T12:30:00Z,30.2583,-88.2131,0.0,8.66,14.8,-9999.0,'1111122,1111122,1111122' 
DISL,ioos:station:DISL:KATA:1,2015-12-03T13:00:00Z,30.2583,-88.2131,0.0,8.18,17.46,-9999.0,'1111122,1111122,1111122' 
DISL,ioos:station:DISL:KATA:1,2015-12-03T13:30:00Z,30.2583,-88.2131,0.0,8.97,17.37,-9999.0,'1111122,1111122,1111122' 
DISL,ioos:station:DISL:KATA:1,2015-12-03T14:00:00Z,30.2583,-88.2131,0.0,8.35,19.69,-9999.0,'1111122,1111122,1111122' 
DISL,ioos:station:DISL:KATA:1,2015-12-03T14:30:00Z,30.2583,-88.2131,0.0,7.69,16.37,-9999.0,'1111122,1111122,1111122' 
DISL,ioos:station:DISL:KATA:1,2015-12-03T15:00:00Z,30.2583,-88.2131,0.0,7.88,21.5,-9999.0,'1111122,1111122,1111122' 
DISL,ioos:station:DISL:KATA:1,2015-12-03T15:30:00Z,30.2583,-88.2131,0.0,7.69,23.95,-9999.0,'1111122,1111122,1111122' 
DISL,ioos:station:DISL:KATA:1,2015-12-03T16:00:00Z,30.2583,-88.2131,0.0,7.38,21.14,-9999.0,'1111122,1111122,1111122' 
DISL,ioos:station:DISL:KATA:1,2015-12-03T16:30:00Z,30.2583,-88.2131,0.0,7.64,34.24,-9999.0,'1111122,1111122,1111122' 
DISL,ioos:station:DISL:KATA:1,2015-12-03T17:00:00Z,30.2583,-88.2131,0.0,7.81,24.75,-9999.0,'1111122,1111122,1111122' 
DISL,ioos:station:DISL:KATA:1,2015-12-03T17:30:00Z,30.2583,-88.2131,0.0,8.12,26.55,-9999.0,'1111122,1111122,1111122' 
DISL,ioos:station:DISL:KATA:1,2015-12-03T18:00:00Z,30.2583,-88.2131,0.0,7.9,26.01,-9999.0,'1111122,1111122,1111122' 
DISL,ioos:station:DISL:KATA:1,2015-12-03T18:30:00Z,30.2583,-88.2131,0.0,7.7,31.33,-9999.0,'1111122,1111122,1111122' 
DISL,ioos:station:DISL:KATA:1,2015-12-03T19:00:00Z,30.2583,-88.2131,0.0,7.63,12.58,-9999.0,'1111122,1111122,1111122' 
DISL,ioos:station:DISL:KATA:1,2015-12-03T19:30:00Z,30.2583,-88.2131,0.0,7.4,8.04,-9999.0,'1111122,1111122,1111122' 
DISL,ioos:station:DISL:KATA:1,2015-12-03T20:00:00Z,30.2583,-88.2131,0.0,6.06,12.11,-9999.0,'1111122,1111122,1111122' 
DISL,ioos:station:DISL:KATA:1,2015-12-03T20:30:00Z,30.2583,-88.2131,0.0,6.65,30.85,-9999.0,'1111122,1111122,1111122' 
DISL,ioos:station:DISL:KATA:1,2015-12-03T21:00:00Z,30.2583,-88.2131,0.0,6.29,18.98,-9999.0,'1111122,1111122,1111122' 
DISL,ioos:station:DISL:KATA:1,2015-12-03T21:30:00Z,30.2583,-88.2131,0.0,7.15,11.56,-9999.0,'1111122,1111122,1111122' 
DISL,ioos:station:DISL:KATA:1,2015-12-03T22:00:00Z,30.2583,-88.2131,0.0,8.34,4.143,-9999.0,'1111122,1111122,1111122' 
DISL,ioos:station:DISL:KATA:1,2015-12-03T22:30:00Z,30.2583,-88.2131,0.0,9.87,6.791,-9999.0,'1111122,1111122,1111122' 
DISL,ioos:station:DISL:KATA:1,2015-12-03T23:00:00Z,30.2583,-88.2131,0.0,9.51,3.889,-9999.0,'1111122,1111122,1111122' 
DISL,ioos:station:DISL:KATA:1,2015-12-03T23:30:00Z,30.2583,-88.2131,0.0,8.57,3.992,-9999.0,'1111122,1111122,1111122' 
DISL,ioos:station:DISL:KATA:1,2015-12-04T00:00:00Z,30.2583,-88.2131,0.0,9.83,6.245,-9999.0,'1111122,1111122,1111122' 
DISL,ioos:station:DISL:KATA:1,2015-12-04T00:30:00Z,30.2583,-88.2131,0.0,9.83,7.408,-9999.0,'1111122,1111122,1111122' 
DISL,ioos:station:DISL:KATA:1,2015-12-04T01:00:00Z,30.2583,-88.2131,0.0,9.69,13.45,-9999.0,'1111122,1111122,1111122' 
DISL,ioos:station:DISL:KATA:1,2015-12-04T01:30:00Z,30.2583,-88.2131,0.0,10.29,20.69,-9999.0,'1111122,1111122,1111122' 
DISL,ioos:station:DISL:KATA:1,2015-12-04T02:00:00Z,30.2583,-88.2131,0.0,9.97,13.84,-9999.0,'1111122,1111122,1111122' 
DISL,ioos:station:DISL:KATA:1,2015-12-04T02:30:00Z,30.2583,-88.2131,0.0,9.12,22.69,-9999.0,'1111122,1111122,1111122' 
DISL,ioos:station:DISL:KATA:1,2015-12-04T03:00:00Z,30.2583,-88.2131,0.0,7.52,24.5,-9999.0,'1111122,1111122,1111122' 
DISL,ioos:station:DISL:KATA:1,2015-12-04T03:30:00Z,30.2583,-88.2131,0.0,8.33,22.51,-9999.0,'1111122,1111122,1111122' 
DISL,ioos:station:DISL:KATA:1,2015-12-04T04:00:00Z,30.2583,-88.2131,0.0,8.95,24.16,-9999.0,'1111122,1111122,1111122' 
DISL,ioos:station:DISL:KATA:1,2015-12-04T04:30:00Z,30.2583,-88.2131,0.0,9.63,20.0,-9999.0,'1111122,1111122,1111122' 
DISL,ioos:station:DISL:KATA:1,2015-12-04T05:00:00Z,30.2583,-88.2131,0.0,9.47,19.58,-9999.0,'1111122,1111122,1111122' 
DISL,ioos:station:DISL:KATA:1,2015-12-04T05:30:00Z,30.2583,-88.2131,0.0,9.02,21.09,-9999.0,'1111122,1111122,1111122' 
DISL,ioos:station:DISL:KATA:1,2015-12-04T06:00:00Z,30.2583,-88.2131,0.0,8.84,18.0,-9999.0,'1111122,1111122,1111122' 
DISL,ioos:station:DISL:KATA:1,2015-12-04T06:30:00Z,30.2583,-88.2131,0.0,8.46,20.83,-9999.0,'1111122,1111122,1111122' 
DISL,ioos:station:DISL:KATA:1,2015-12-04T07:00:00Z,30.2583,-88.2131,0.0,8.45,20.33,-9999.0,'1111122,1111122,1111122' 
DISL,ioos:station:DISL:KATA:1,2015-12-04T07:30:00Z,30.2583,-88.2131,0.0,8.48,17.86,-9999.0,'1111122,1111122,1111122' 
DISL,ioos:station:DISL:KATA:1,2015-12-04T08:00:00Z,30.2583,-88.2131,0.0,8.75,18.03,-9999.0,'1111122,1111122,1111122' 
DISL,ioos:station:DISL:KATA:1,2015-12-04T08:30:00Z,30.2583,-88.2131,0.0,8.83,21.88,-9999.0,'1111122,1111122,1111122' 
DISL,ioos:station:DISL:KATA:1,2015-12-04T09:00:00Z,30.2583,-88.2131,0.0,8.37,19.71,-9999.0,'1111122,1111122,1111122' 
DISL,ioos:station:DISL:KATA:1,2015-12-04T09:30:00Z,30.2583,-88.2131,0.0,8.48,16.3,-9999.0,'1111122,1111122,1111122' 
DISL,ioos:station:DISL:KATA:1,2015-12-04T10:00:00Z,30.2583,-88.2131,0.0,8.7,17.36,-9999.0,'1111122,1111122,1111122' 
DISL,ioos:station:DISL:KATA:1,2015-12-04T10:30:00Z,30.2583,-88.2131,0.0,8.74,22.91,-9999.0,'1111122,1111122,1111122' 
DISL,ioos:station:DISL:KATA:1,2015-12-04T11:00:00Z,30.2583,-88.2131,0.0,8.81,25.6,-9999.0,'1111122,1111122,1111122' 
DISL,ioos:station:DISL:KATA:1,2015-12-04T11:30:00Z,30.2583,-88.2131,0.0,8.37,24.43,-9999.0,'1111122,1111122,1111122' 
DISL,ioos:station:DISL:KATA:1,2015-12-04T12:00:00Z,30.2583,-88.2131,0.0,8.6,24.39,-9999.0,'1111122,1111122,1111122' 
DISL,ioos:station:DISL:KATA:1,2015-12-04T12:30:00Z,30.2583,-88.2131,0.0,8.38,23.42,-9999.0,'1111122,1111122,1111122' 
DISL,ioos:station:DISL:KATA:1,2015-12-04T13:00:00Z,30.2583,-88.2131,0.0,7.38,30.73,-9999.0,'1111122,1111122,1111122' 
DISL,ioos:station:DISL:KATA:1,2015-12-04T13:30:00Z,30.2583,-88.2131,0.0,7.14,28.39,-9999.0,'1111122,1111122,1111122' 
DISL,ioos:station:DISL:KATA:1,2015-12-04T14:00:00Z,30.2583,-88.2131,0.0,8.09,36.18,-9999.0,'1111122,1111122,1111122' 
DISL,ioos:station:DISL:KATA:1,2015-12-04T14:30:00Z,30.2583,-88.2131,0.0,9.39,43.79,-9999.0,'1111122,1111122,1111122' 
DISL,ioos:station:DISL:KATA:1,2015-12-04T15:00:00Z,30.2583,-88.2131,0.0,8.56,49.57,-9999.0,'1111122,1111122,1111122' 
DISL,ioos:station:DISL:KATA:1,2015-12-04T15:30:00Z,30.2583,-88.2131,0.0,8.35,48.56,-9999.0,'1111122,1111122,1111122' 
DISL,ioos:station:DISL:KATA:1,2015-12-04T16:00:00Z,30.2583,-88.2131,0.0,8.04,51.82,-9999.0,'1111122,1111122,1111122' 
DISL,ioos:station:DISL:KATA:1,2015-12-04T16:30:00Z,30.2583,-88.2131,0.0,7.26,57.12,-9999.0,'1111122,1111122,1111122' 
DISL,ioos:station:DISL:KATA:1,2015-12-04T17:00:00Z,30.2583,-88.2131,0.0,6.5,54.12,-9999.0,'1111122,1111122,1111122' 
DISL,ioos:station:DISL:KATA:1,2015-12-04T17:30:00Z,30.2583,-88.2131,0.0,5.81,50.8,-9999.0,'1111122,1111122,1111122' 
DISL,ioos:station:DISL:KATA:1,2015-12-04T18:00:00Z,30.2583,-88.2131,0.0,5.53,54.95,-9999.0,'1111122,1111122,1111122' 
DISL,ioos:station:DISL:KATA:1,2015-12-04T18:30:00Z,30.2583,-88.2131,0.0,4.37,49.08,-9999.0,'1111122,1111122,1111122' 
DISL,ioos:station:DISL:KATA:1,2015-12-04T19:00:00Z,30.2583,-88.2131,0.0,3.78,41.18,-9999.0,'1111122,1111122,1111122' 
DISL,ioos:station:DISL:KATA:1,2015-12-04T19:30:00Z,30.2583,-88.2131,0.0,4.36,39.33,-9999.0,'1111122,1111122,1111122' 
DISL,ioos:station:DISL:KATA:1,2015-12-04T20:00:00Z,30.2583,-88.2131,0.0,5.07,35.59,-9999.0,'1111122,1111122,1111122' 
DISL,ioos:station:DISL:KATA:1,2015-12-04T20:30:00Z,30.2583,-88.2131,0.0,5.55,23.59,-9999.0,'1111122,1111122,1111122' 
DISL,ioos:station:DISL:KATA:1,2015-12-04T21:00:00Z,30.2583,-88.2131,0.0,5.6,27.04,-9999.0,'1111122,1111122,1111122' 
DISL,ioos:station:DISL:KATA:1,2015-12-04T21:30:00Z,30.2583,-88.2131,0.0,6.07,17.87,-9999.0,'1111122,1111122,1111122' 
DISL,ioos:station:DISL:KATA:1,2015-12-04T22:00:00Z,30.2583,-88.2131,0.0,7.04,18.07,-9999.0,'1111122,1111122,1111122' 
DISL,ioos:station:DISL:KATA:1,2015-12-04T22:30:00Z,30.2583,-88.2131,0.0,6.81,11.37,-9999.0,'1111122,1111122,1111122' 
DISL,ioos:station:DISL:KATA:1,2015-12-04T23:00:00Z,30.2583,-88.2131,0.0,6.06,11.47,-9999.0,'1111122,1111122,1111122' 
DISL,ioos:station:DISL:KATA:1,2015-12-04T23:30:00Z,30.2583,-88.2131,0.0,6.2,19.77,-9999.0,'1111122,1111122,1111122' 
DISL,ioos:station:DISL:KATA:1,2015-12-05T00:00:00Z,30.2583,-88.2131,0.0,7.24,22.96,-9999.0,'1111122,1111122,1111122' 
DISL,ioos:station:DISL:KATA:1,2015-12-05T00:30:00Z,30.2583,-88.2131,0.0,7.32,27.75,-9999.0,'1111122,1111122,1111122' 
DISL,ioos:station:DISL:KATA:1,2015-12-05T01:00:00Z,30.2583,-88.2131,0.0,7.6,29.95,-9999.0,'1111122,1111122,1111122' 
DISL,ioos:station:DISL:KATA:1,2015-12-05T01:30:00Z,30.2583,-88.2131,0.0,6.29,36.59,-9999.0,'1111122,1111122,1111122' 
DISL,ioos:station:DISL:KATA:1,2015-12-05T02:00:00Z,30.2583,-88.2131,0.0,7.09,33.79,-9999.0,'1111122,1111122,1111122' 
DISL,ioos:station:DISL:KATA:1,2015-12-05T02:30:00Z,30.2583,-88.2131,0.0,7.78,40.97,-9999.0,'1111122,1111122,1111122' 
DISL,ioos:station:DISL:KATA:1,2015-12-05T03:00:00Z,30.2583,-88.2131,0.0,8.75,45.68,-9999.0,'1111122,1111122,1111122' 
DISL,ioos:station:DISL:KATA:1,2015-12-05T03:30:00Z,30.2583,-88.2131,0.0,8.52,45.61,-9999.0,'1111122,1111122,1111122' 
DISL,ioos:station:DISL:KATA:1,2015-12-05T04:00:00Z,30.2583,-88.2131,0.0,9.06,50.98,-9999.0,'1111122,1111122,1111122' 
DISL,ioos:station:DISL:KATA:1,2015-12-05T04:30:00Z,30.2583,-88.2131,0.0,9.66,59.59,-9999.0,'1111122,1111122,1111122' 